Year,Month,Day,Hour,Minute,Value (Times are PST for temperature in C)
2017,10,21,00,00,6.40
2017,10,21,00,01,6.40
2017,10,21,00,02,6.40
2017,10,21,00,03,6.40
2017,10,21,00,04,6.40
2017,10,21,00,05,6.40
2017,10,21,00,06,6.40
2017,10,21,00,07,6.30
2017,10,21,00,08,6.30
2017,10,21,00,09,6.30
2017,10,21,00,10,6.30
2017,10,21,00,11,6.30
2017,10,21,00,12,6.30
2017,10,21,00,13,6.20
2017,10,21,00,14,6.20
2017,10,21,00,15,6.20
2017,10,21,00,16,6.20
2017,10,21,00,17,6.20
2017,10,21,00,18,6.20
2017,10,21,00,19,6.20
2017,10,21,00,20,6.20
2017,10,21,00,21,6.20
2017,10,21,00,22,6.20
2017,10,21,00,23,6.20
2017,10,21,00,24,6.20
2017,10,21,00,25,6.20
2017,10,21,00,26,6.30
2017,10,21,00,27,6.30
2017,10,21,00,28,6.30
2017,10,21,00,29,6.40
2017,10,21,00,30,6.40
2017,10,21,00,31,6.50
2017,10,21,00,32,6.60
2017,10,21,00,33,6.70
2017,10,21,00,34,6.80
2017,10,21,00,35,6.90
2017,10,21,00,36,7.00
2017,10,21,00,37,7.20
2017,10,21,00,38,7.40
2017,10,21,00,39,7.50
2017,10,21,00,40,7.70
2017,10,21,00,41,7.80
2017,10,21,00,42,7.90
2017,10,21,00,43,8.00
2017,10,21,00,44,8.00
2017,10,21,00,45,8.10
2017,10,21,00,46,8.10
2017,10,21,00,47,8.20
2017,10,21,00,48,8.20
2017,10,21,00,49,8.20
2017,10,21,00,50,8.30
2017,10,21,00,51,8.30
2017,10,21,00,52,8.30
2017,10,21,00,53,8.30
2017,10,21,00,54,8.40
2017,10,21,00,55,8.40
2017,10,21,00,56,8.40
2017,10,21,00,57,8.40
2017,10,21,00,58,8.40
2017,10,21,00,59,8.50
2017,10,21,01,00,8.50
2017,10,21,01,01,8.50
2017,10,21,01,02,8.50
2017,10,21,01,03,8.50
2017,10,21,01,04,8.50
2017,10,21,01,05,8.50
2017,10,21,01,06,8.60
2017,10,21,01,07,8.60
2017,10,21,01,08,8.60
2017,10,21,01,09,8.60
2017,10,21,01,10,8.60
2017,10,21,01,11,8.60
2017,10,21,01,12,8.60
2017,10,21,01,13,8.50
2017,10,21,01,14,8.50
2017,10,21,01,15,8.50
2017,10,21,01,16,8.50
2017,10,21,01,17,8.50
2017,10,21,01,18,8.50
2017,10,21,01,19,8.50
2017,10,21,01,20,8.50
2017,10,21,01,21,8.50
2017,10,21,01,22,8.50
2017,10,21,01,23,8.50
